Hourly Weather Roundup
Issued by NWS Central Illinois

Home | Current Version | Previous Version | Text Only | Print | Product List | Glossary On
Versions: 1 2 3 4 5 6 7 8 9 10 11 12 13 14 15 16 17 18 19 20 21 22 23 24 25 26 27 28 29 30 31 32 33 34 35 36 37 38 39 40 41 42 43 44 45 46 47 48 49 50
000
NZUS43 KILX 241510
HWRILX

AREA WEATHER ROUNDUP
NATIONAL WEATHER SERVICE, LINCOLN IL
1000 AM CDT WED AUG 24 2016


CITY           SKY/WX    TMP DP  RH WIND       PRES   REMARKS
BLOOMINGTON    LGT RAIN  75  73  93 SW9       30.01R
CHAMPAIGN      CLOUDY    76  73  91 S10G22    30.03F
DANVILLE       HVY RAIN  72  71  98 S7        30.04R
DECATUR        CLOUDY    80  73  79 S20G29    29.99F HX  84
EFFINGHAM      PTSUNNY   81  77  88 S9G18     30.08S HX  88
FLORA          MOSUNNY   83  76  80 S13G22    30.08F HX  91
GALESBURG      MOSUNNY   78  73  85 S12       29.94R HX  81
JACKSONVILLE   MOSUNNY   81  74  77 SW17G26   29.97R HX  87
LACON          CLOUDY    76  73  93 S3        29.94S
LAWRENCEVILLE  PTSUNNY   82  74  76 S16       30.10F HX  88
LITCHFIELD     SUNNY     80  73  80 S16G22    30.01F HX  84
$$


CITY           SKY/WX    TMP DP  RH WIND       PRES   REMARKS
LINCOLN        CLOUDY    80  76  85 SW6       29.98R HX  86
MACOMB         PTSUNNY   78  73  83 SW12      29.98R HX  80
MATTOON        PTSUNNY   79  73  82 S15G22    30.06R HX  82
MT CARMEL AP   PTSUNNY   81  74  77 SW13      30.11F HX  87
OLNEY-NOBLE AP MOSUNNY   81  77  89 S10       30.09F HX  88
PARIS          PTSUNNY   78  74  88 S10       30.07S THUNDER HX  80
PEORIA         CLOUDY    79  76  90 S14       29.95F HX  83
PONTIAC        HVY RAIN  73  73 100 CALM      30.00S VSB 3/4
RANTOUL        CLOUDY    75  74  96 S16       30.03S
ROBINSON       MOSUNNY   81  75  82 SW14G20   30.10S HX  86
SPRINGFIELD    CLOUDY    81  73  76 SW12G23   29.97S HX  86
TAYLORVILLE    CLOUDY    80  74  81 S17       30.00F HX  85
$$

...REGIONAL REPORTS...


CITY           SKY/WX    TMP DP  RH WIND       PRES   REMARKS
CHICAGO O`HARE CLOUDY    73  71  93 S8        29.97F FOG
KANKAKEE       RAIN      72  71  96 S12       30.02F
MOLINE         MOSUNNY   79  73  82 SW8       29.90F HX  82
MOUNT STERLING CLOUDY    79  73  81 W13       29.98R HX  82
MOUNT VERNON   CLOUDY    82  72  69 SW18      30.10S HX  87
PITTSFIELD     CLOUDY    82  73  74 SW17G23   29.97S HX  88
QUINCY         CLOUDY    78  74  87 W9        29.98R HX  81
ROCKFORD       LGT RAIN  73  71  93 S13       29.97F
$$


CITY           SKY/WX    TMP DP  RH WIND       PRES   REMARKS
BURLINGTON     MOSUNNY   78  70  76 W8        29.94R HX  80
CEDAR RAPIDS   MOSUNNY   76  72  87 W7        29.91S
DES MOINES     PTSUNNY   76  66  71 W9        29.94R
KIRKSVILLE     SUNNY     77  69  76 W8        30.01R
OTTUMWA        MOSUNNY   77  66  68 W10       29.94R
ST LOUIS       PTSUNNY   85  72  65 SW18G29   30.02F HX  91
$$


CITY           SKY/WX    TMP DP  RH WIND       PRES   REMARKS
TERRE HAUTE    CLOUDY    81  73  76 S9        30.09S HX  86
EVANSVILLE     MOSUNNY   81  73  76 SW10G20   30.15S HX  86
INDIANAPOLIS   CLOUDY    76  69  79 S13       30.12S
LAFAYETTE      LGT RAIN  74  71  91 SW7       30.08R
MADISON        CLOUDY    70  66  87 S10       29.92R
MILWAUKEE      CLOUDY    74  70  87 S13       29.92F
$$






USA.gov is the U.S. government's official web portal to all federal, state and local government web resources and services.